Location: Bovenkerk
(52.2915°N, 4.8336°E)
Time: 01:49:15
(UTC+00:00)

N. Korean satellite - Pass Details

Date: 13 March 2021
Orbit: 453 x 499 km, 97.2° (Epoch: 11 April)

Event Time Altitude Azimuth Distance (km) Brightness Sun altitude
Rises 04:01:28 0° 29° (NNE) 2,559 11.0 -18.6°
Reaches altitude 10° 04:04:23 10° 56° (NE) 1,682 10.5 -18.1°
Maximum altitude 04:06:21 14° 89° (E) 1,453 10.0 -17.9°
Drops below altitude 10° 04:08:19 10° 122° (ESE) 1,687 9.8 -17.6°
Sets 04:11:14 0° 148° (SSE) 2,571 10.4 -17.2°
